| time (UTC) | temp F | wind direction | speed MPH | gust MPH | rain 1hr in | rain 24hr in | rain mn in | humidity % | barometer mb |
| 20260507234503 | 51 | 356 | 0.0 | 3.0 | 0.00 | 0.21 | 0.06 | 42 | 1006.0 |
| 20260507233004 | 52 | 357 | 0.0 | 6.0 | 0.00 | 0.21 | 0.06 | 44 | 1005.8 |
| 20260507231510 | 52 | 123 | 0.0 | 3.0 | 0.00 | 0.23 | 0.06 | 44 | 1005.6 |
| 20260507230013 | 53 | 112 | 1.0 | 3.0 | 0.00 | 0.23 | 0.06 | 44 | 1005.5 |
| 20260507224505 | 53 | 11 | 1.0 | 3.0 | 0.00 | 0.23 | 0.06 | 41 | 1005.3 |
| 20260507223004 | 54 | 182 | 2.0 | 4.0 | 0.00 | 0.24 | 0.06 | 39 | 1005.0 |
| 20260507221513 | 54 | 36 | 1.0 | 4.0 | 0.00 | 0.24 | 0.06 | 44 | 1004.9 |
| 20260507220013 | 55 | 13 | 1.0 | 2.0 | 0.00 | 0.24 | 0.06 | 45 | 1004.6 |
| 20260507214516 | 56 | 22 | 1.0 | 4.0 | 0.00 | 0.25 | 0.06 | 43 | 1004.7 |
| 20260507213004 | 57 | 321 | 1.0 | 8.0 | 0.00 | 0.25 | 0.06 | 36 | 1004.5 |
| 20260507211508 | 56 | 287 | 0.0 | 5.0 | 0.00 | 0.25 | 0.06 | 37 | 1004.4 |
| 20260507210023 | 56 | 116 | 2.0 | 8.0 | 0.00 | 0.26 | 0.06 | 36 | 1004.2 |
| 20260507204514 | 57 | 167 | 0.0 | 7.0 | 0.00 | 0.28 | 0.06 | 1004.0 | |
| 20260507203018 | 59 | 86 | 1.0 | 10.0 | 0.00 | 0.29 | 0.06 | 36 | 1003.8 |
| 20260507201508 | 60 | 53 | 1.0 | 3.0 | 0.00 | 0.31 | 0.06 | 40 | 1003.7 |
| 20260507200010 | 61 | 1 | 2.0 | 8.0 | 0.00 | 0.32 | 0.06 | 32 | 1003.7 |
| 20260507194511 | 61 | 3 | 2.0 | 7.0 | 0.00 | 0.32 | 0.06 | 33 | 1003.6 |
| 20260507193019 | 61 | 8 | 1.0 | 9.0 | 0.00 | 0.34 | 0.06 | 37 | 1003.7 |
| 20260507191520 | 61 | 355 | 3.0 | 7.0 | 0.00 | 0.35 | 0.06 | 34 | 1003.6 |
| 20260507190005 | 61 | 14 | 3.0 | 9.0 | 0.00 | 0.37 | 0.06 | 38 | 1003.6 |
| 20260507184515 | 61 | 52 | 3.0 | 9.0 | 0.00 | 0.40 | 0.06 | 36 | 1003.8 |
| 20260507183022 | 59 | 352 | 2.0 | 8.0 | 0.00 | 0.44 | 0.06 | 42 | 1004.0 |
| 20260507181519 | 57 | 350 | 3.0 | 11.0 | 0.00 | 0.46 | 0.06 | 48 | 1004.2 |
| 20260507180021 | 58 | 359 | 3.0 | 8.0 | 0.00 | 0.47 | 0.06 | 50 | 1004.4 |
| 20260507174507 | 59 | 334 | 2.0 | 6.0 | 0.00 | 0.48 | 0.06 | 47 | 1004.4 |
| 20260507173011 | 58 | 77 | 1.0 | 12.0 | 0.00 | 0.48 | 0.06 | 51 | 1004.3 |
| 20260507171516 | 57 | 338 | 3.0 | 7.0 | 0.00 | 0.48 | 0.06 | 50 | 1004.4 |
| 20260507170022 | 58 | 356 | 3.0 | 7.0 | 0.00 | 0.48 | 0.06 | 50 | 1004.4 |
| 20260507164526 | 58 | 175 | 0.0 | 8.0 | 0.00 | 0.48 | 0.06 | 48 | 1004.6 |
| 20260507163009 | 59 | 13 | 3.0 | 7.0 | 0.00 | 0.48 | 0.06 | 57 | 1004.7 |
| 20260507161517 | 57 | 359 | 3.0 | 5.0 | 0.00 | 0.48 | 0.06 | 57 | 1004.7 |
| 20260507160024 | 56 | 31 | 1.0 | 9.0 | 0.00 | 0.49 | 0.06 | 60 | 1005.0 |
| 20260507154530 | 56 | 22 | 1.0 | 4.0 | 0.00 | 0.49 | 0.06 | 59 | 1005.3 |
| 20260507153036 | 56 | 39 | 1.0 | 4.0 | 0.00 | 0.49 | 0.06 | 61 | 1005.4 |
| 20260507151505 | 56 | 22 | 0.0 | 2.0 | 0.00 | 0.49 | 0.06 | 61 | 1005.2 |
| 20260507150004 | 56 | 51 | 1.0 | 3.0 | 0.00 | 0.49 | 0.06 | 1005.2 | |
| 20260507144506 | 56 | 18 | 1.0 | 4.0 | 0.00 | 0.49 | 0.06 | 1005.4 | |
| 20260507143004 | 55 | 39 | 2.0 | 3.0 | 0.00 | 0.49 | 0.06 | 64 | 1005.4 |
| 20260507141504 | 55 | 160 | 1.0 | 4.0 | 0.00 | 0.49 | 0.06 | 66 | 1005.7 |
| 20260507134505 | 54 | 15 | 0.0 | 4.0 | 0.00 | 0.49 | 0.06 | 68 | 1005.9 |
| 20260507133004 | 53 | 275 | 1.0 | 3.0 | 0.00 | 0.49 | 0.06 | 73 | 1005.9 |
| 20260507131516 | 52 | 31 | 1.0 | 5.0 | 0.00 | 0.49 | 0.06 | 73 | 1006.0 |
| 20260507130012 | 51 | 342 | 2.0 | 5.0 | 0.00 | 0.49 | 0.06 | 75 | 1006.0 |
| 20260507124511 | 50 | 42 | 1.0 | 3.0 | 0.00 | 0.49 | 0.06 | 76 | 1006.0 |
| 20260507123005 | 49 | 1 | 2.0 | 7.0 | 0.00 | 0.49 | 0.06 | 76 | 1006.1 |
| 20260507121509 | 49 | 6 | 2.0 | 8.0 | 0.00 | 0.49 | 0.06 | 76 | 1006.2 |
| 20260507120018 | 48 | 25 | 1.0 | 6.0 | 0.00 | 0.49 | 0.06 | 80 | 1006.1 |
| 20260507114509 | 47 | 59 | 1.0 | 3.0 | 0.00 | 0.49 | 0.06 | 79 | 1006.6 |
| 20260507111504 | 47 | 252 | 2.0 | 6.0 | 0.00 | 0.49 | 0.06 | 80 | 1006.2 |
| 20260507110010 | 46 | 94 | 1.0 | 8.0 | 0.00 | 0.49 | 0.06 | 81 | 1006.6 |
| 20260507104513 | 45 | 30 | 0.0 | 2.0 | 0.00 | 0.49 | 0.06 | 84 | 1006.4 |
| 20260507103026 | 0 | 0.0 | 0.0 | 0.00 | 0.49 | 0.06 | 1006.2 | ||
| 20260507101515 | 0 | 0.0 | 0.0 | 0.00 | 0.49 | 0.06 | 1006.2 | ||
| 20260507100012 | 0 | 0.0 | 0.0 | 0.00 | 0.49 | 0.06 | 1006.2 | ||
| 20260507094516 | 0 | 0.0 | 0.0 | 0.00 | 0.49 | 0.06 | 1005.7 | ||
| 20260507093014 | 0 | 0.0 | 0.0 | 0.00 | 0.49 | 0.06 | 1006.0 | ||
| 20260507091524 | 0 | 0.0 | 0.0 | 0.00 | 0.49 | 0.06 | 1006.0 | ||
| 20260507090021 | 0 | 5 | 0.0 | 4.0 | 0.00 | 0.49 | 0.06 | 1006.2 | |
| 20260507084511 | 44 | 334 | 0.0 | 2.0 | 0.00 | 0.49 | 0.06 | 92 | 1006.4 |
| 20260507083018 | 44 | 14 | 0.0 | 1.0 | 0.00 | 0.49 | 0.06 | 92 | 1005.9 |
| 20260507081515 | 44 | 19 | 0.0 | 2.0 | 0.00 | 0.49 | 0.06 | 93 | 1005.6 |
| 20260507080015 | 44 | 19 | 0.0 | 3.0 | 0.00 | 0.49 | 0.06 | 92 | 1006.0 |
| 20260507074510 | 45 | 216 | 0.0 | 2.0 | 0.00 | 0.49 | 0.06 | 92 | 1006.2 |
| 20260507073013 | 45 | 208 | 0.0 | 4.0 | 0.00 | 0.49 | 0.06 | 90 | 1006.2 |
| 20260507071548 | 45 | 359 | 2.0 | 4.0 | 0.00 | 0.49 | 0.06 | 91 | 1005.8 |
| 20260507070020 | 45 | 14 | 1.0 | 3.0 | 0.00 | 0.49 | 0.06 | 92 | 1005.6 |
| 20260507064522 | 45 | 42 | 0.0 | 2.0 | 0.00 | 0.49 | 0.06 | 94 | 1005.4 |
| 20260507063012 | 46 | 63 | 2.0 | 7.0 | 0.00 | 0.49 | 0.06 | 92 | 1005.2 |
| 20260507061503 | 46 | 1 | 1.0 | 4.0 | 0.00 | 0.49 | 0.06 | 95 | 1005.2 |
| 20260507060004 | 46 | 30 | 0.0 | 2.0 | 0.00 | 0.49 | 0.06 | 95 | 1005.2 |
| 20260507054504 | 47 | 30 | 0.0 | 2.0 | 0.02 | 0.49 | 0.06 | 95 | 1004.8 |
| 20260507053013 | 47 | 30 | 0.0 | 2.0 | 0.04 | 0.49 | 0.06 | 95 | 1004.7 |
| 20260507051527 | 47 | 75 | 0.0 | 2.0 | 0.05 | 0.49 | 0.06 | 95 | 1005.1 |
| 20260507050003 | 47 | 354 | 1.0 | 4.0 | 0.06 | 0.49 | 0.06 | 94 | 1005.0 |
| 20260507044505 | 47 | 250 | 0.0 | 6.0 | 0.04 | 0.47 | 0.04 | 94 | 1005.0 |
| 20260507043011 | 48 | 15 | 1.0 | 4.0 | 0.03 | 0.45 | 0.02 | 93 | 1005.3 |
| 20260507041512 | 48 | 2 | 2.0 | 7.0 | 0.05 | 0.44 | 0.01 | 93 | 1005.3 |
| 20260507040017 | 49 | 1 | 0.0 | 5.0 | 0.07 | 0.43 | 0.00 | 94 | 1005.2 |
| 20260507034532 | 49 | 326 | 2.0 | 5.0 | 0.08 | 0.43 | 0.43 | 93 | 1005.2 |
| 20260507033014 | 50 | 51 | 1.0 | 4.0 | 0.07 | 0.42 | 0.42 | 94 | 1005.0 |
| 20260507031508 | 51 | 96 | 0.0 | 5.0 | 0.04 | 0.39 | 0.39 | 95 | 1004.6 |
| 20260507030024 | 52 | 1 | 1.0 | 6.0 | 0.01 | 0.36 | 0.36 | 94 | 1004.5 |
| 20260507024517 | 52 | 143 | 0.0 | 2.0 | 0.01 | 0.35 | 0.35 | 95 | 1004.3 |
| 20260507023026 | 53 | 107 | 0.0 | 2.0 | 0.02 | 0.35 | 0.35 | 95 | 1004.0 |
| 20260507021506 | 53 | 244 | 0.0 | 3.0 | 0.06 | 0.35 | 0.35 | 95 | 1004.2 |
| 20260507020017 | 53 | 340 | 0.0 | 3.0 | 0.06 | 0.35 | 0.35 | 95 | 1004.1 |
| 20260507014516 | 54 | 359 | 0.0 | 4.0 | 0.05 | 0.34 | 0.34 | 96 | 1004.2 |
| 20260507013021 | 55 | 160 | 0.0 | 2.0 | 0.04 | 0.33 | 0.33 | 97 | 1004.4 |
| 20260507011507 | 54 | 4 | 1.0 | 2.0 | 0.00 | 0.29 | 0.29 | 97 | 1004.3 |
| 20260507010016 | 54 | 188 | 0.0 | 2.0 | 0.01 | 0.29 | 0.29 | 97 | 1004.0 |
| 20260507004514 | 54 | 136 | 1.0 | 3.0 | 0.01 | 0.29 | 0.29 | 97 | 1004.0 |
| 20260507003021 | 54 | 241 | 0.0 | 3.0 | 0.01 | 0.29 | 0.29 | 97 | 1004.0 |
| 20260507001524 | 54 | 145 | 1.0 | 3.0 | 0.03 | 0.29 | 0.29 | 97 | 1004.0 |
| 20260507000012 | 55 | 133 | 1.0 | 5.0 | 0.02 | 0.28 | 0.28 | 97 | 1004.0 |